Location: Unspecified
(47.4992°N, 121.7766°W)
Time: 14:09:59
(UTC-07:00)

Okean 3 - Visible Passes

Search period start: 18 June 2018 00:00
Search period end: 28 June 2018 00:00
Orbit: 576 x 603 km, 82.5° (Epoch: 17 June)

Date Brightness Start Highest point End Pass type
(mag) Time Alt. Az. Time Alt. Az. Time Alt. Az.
18 Jun 5.9 03:46:58 10° NNE 03:50:20 23° ENE 03:53:42 10° ESE visible
19 Jun 5.3 03:54:45 10° N 03:58:32 32° ENE 04:02:19 10° SE visible
20 Jun 4.6 04:02:38 10° N 04:06:42 46° ENE 04:10:45 10° SSE visible
21 Jun 3.8 04:10:37 10° N 04:14:48 68° E 04:19:00 10° SSE visible
22 Jun 6.5 02:43:42 10° NE 02:45:02 11° ENE 02:46:21 10° E visible
22 Jun 3.4 04:18:41 10° N 04:22:53 81° W 04:27:06 10° S visible
23 Jun 6.2 02:50:43 10° NNE 02:53:19 16° ENE 02:55:54 10° ESE visible
23 Jun 3.6 04:26:49 10° NNW 04:30:55 55° W 04:35:02 10° S visible
24 Jun 5.8 02:58:15 10° NNE 03:01:33 22° ENE 03:04:51 10° ESE visible
25 Jun 5.2 03:06:00 10° N 03:09:45 30° ENE 03:13:31 10° SE visible
26 Jun 4.5 03:13:53 10° N 03:17:55 43° ENE 03:21:58 10° SSE visible
27 Jun 3.8 03:21:51 10° N 03:26:03 64° E 03:30:14 10° SSE visible
